Flag for Canada Weather past 2 weeks in Brantford, Ontario, Canada

Now
16 °F

Partly sunny.


Feels Like: -1 °F
Forecast: -7 / 20 °F
Wind: 18 mph from Southwest

Location: Hamilton Airport

Current Time: Mar 6, 2015 at 12:46:27 PM

Latest Report: Mar 6, 2015 at 12:00 PM


Visibility: 15 mi

Pressure: 30.48 "Hg

Humidity: 57%

Dew point: 3 °F

Location of BrantfordLocation

Historic Weather in Brantford — Graph

°F

Brantford temperature yesterday

Maximum temperature yesterday: 16 °F (at 12:00 AM)
Minimum temperature yesterday: 0 °F (at 11:00 PM)
Average temperature yesterday: 8 °F

Past Weeks' High & Low Weather Summary

 TemperatureHumidityPressure
High34 °F (Mar 3, 8:00 PM)93% (Feb 21, 7:00 PM)30.81 "Hg (Feb 21, 7:00 PM)
Low-15 °F (Feb 20, 3:00 AM)38% (Feb 20, 2:00 PM)29.57 "Hg (Mar 3, 7:00 PM)
Average9 °F69%30.25 "Hg
* Reported Feb 19 11:00 AM — Mar 6 11:00 AM, Brantford, Weather by CustomWeather, © 2015

Note: Actual official high and low records may vary slightly from our data, if they occured in-between our weather recording intervals... More about our weather records

Advertising

Brantford weather history for previous 24 hours

 ConditionsComfort  
Time TempWeatherWind HumidityBarometerVisibility
11:00 AM
Fri, Mar 6
14 °FPassing clouds.13 mph62%30.49 "Hg15 mi
10:00 AM9 °FSunny.8 mph78%30.51 "Hg15 mi
9:00 AM3 °FSunny.7 mph78%30.52 "Hg15 mi
8:00 AM-4 °FSunny.6 mph77%30.53 "Hg15 mi
7:00 AM-6 °FSunny.6 mph77%30.53 "Hg15 mi
6:00 AM-6 °FClear.5 mph77%30.53 "Hg15 mi
5:00 AM-4 °FClear.6 mph77%30.52 "Hg15 mi
4:00 AM-2 °FClear.5 mph77%30.51 "Hg15 mi
3:00 AM-2 °FClear.6 mph84%30.52 "Hg15 mi
2:00 AM-4 °FClear.7 mph84%30.53 "Hg15 mi
1:00 AM-2 °FClear.7 mph84%30.52 "Hg20 mi
12:00 AM-2 °FClear.5 mph77%30.53 "Hg15 mi
11:00 PM
Thu, Mar 5
0 °FClear.3 mph71%30.53 "Hg15 mi
10:00 PM1 °FClear.6 mph65%30.53 "Hg15 mi
9:00 PM3 °FClear.6 mph60%30.51 "Hg15 mi
8:00 PM5 °FClear.7 mph55%30.49 "Hg15 mi
7:00 PM7 °FPassing clouds.7 mph56%30.47 "Hg15 mi
6:00 PM10 °FPassing clouds.8 mph47%30.42 "Hg15 mi
5:00 PM12 °FPassing clouds.12 mph44%30.40 "Hg15 mi
4:00 PM12 °FPassing clouds.12 mph44%30.38 "Hg15 mi
3:00 PM12 °FPassing clouds.12 mph48%30.36 "Hg15 mi
2:00 PM12 °FPassing clouds.12 mph48%30.35 "Hg15 mi
1:00 PM10 °FPartly sunny.5 mph52%30.37 "Hg15 mi
12:00 PM10 °FBroken clouds.10 mph52%30.35 "Hg15 mi
Weather by CustomWeather, © 2015

See weather overviewHow to use our weather pages